Flag for Italy Weather past 2 weeks in Bologna, Italy

64 °F


Feels Like: 64 °F
Forecast: 56 / 69 °F
Wind: 9 mph from West

Location: Bologna / Borgo Panigale

Current Time: Oct 7, 2015 at 11:07:02 AM

Latest Report: Oct 7, 2015 at 10:20 AM

Visibility: 3 mi

Pressure: 29.80 "Hg

Humidity: 88%

Dew point: 61 °F

Location of BolognaLocation

Historic Weather in Bologna — Graph


Bologna temperature yesterday

Maximum temperature yesterday: 64 °F (at 12:20 AM)
Minimum temperature yesterday: 61 °F (at 7:20 AM)
Average temperature yesterday: 62 °F

Past Weeks' High & Low Weather Summary

High77 °F (Sep 22, 1:50 PM)100% (Oct 2, 2:20 PM)30.33 "Hg (Oct 2, 2:20 PM)
Low52 °F (Oct 1, 3:20 AM)38% (Sep 28, 12:20 PM)29.59 "Hg (Sep 23, 7:50 AM)
Average62 °F74%30.07 "Hg
* Reported Sep 22 9:20 AM — Oct 7 9:50 AM, Bologna, Weather by CustomWeather, © 2015

Note: Actual official high and low records may vary slightly from our data, if they occured in-between our weather recording intervals... More about our weather records


Bologna weather history for previous 24 hours

Time TempWeatherWind HumidityBarometerVisibility
9:50 AM
Wed, Oct 7
63 °FFog.5 mph94%29.80 "Hg3 mi
9:20 AM63 °FFog.6 mph88%29.80 "Hg3 mi
8:50 AM63 °FFog.6 mph94%29.80 "Hg2 mi
8:20 AM61 °FFog.5 mph100%29.80 "Hg2 mi
7:50 AM61 °FFog.2 mph100%29.80 "Hg2 mi
7:20 AM61 °FFog.5 mph100%29.80 "Hg1 mi
6:50 AM61 °FFog.5 mph100%29.80 "Hg1 mi
6:20 AM61 °FFog.3 mph100%29.80 "Hg1 mi
5:50 AM61 °FFog.3 mph100%29.80 "Hg1 mi
5:20 AM61 °FFog.3 mph100%29.77 "Hg1 mi
4:50 AM61 °FFog.2 mph100%29.77 "Hg1 mi
4:20 AM61 °FFog.No wind100%29.80 "Hg1 mi
3:50 AM61 °FFog.2 mph100%29.80 "Hg1 mi
3:20 AM61 °FFog.6 mph100%29.77 "Hg1 mi
2:50 AM63 °FLight rain. Fog.3 mph94%29.77 "Hg1 mi
2:20 AM61 °FLight rain. Fog.7 mph100%29.77 "Hg1 mi
1:50 AM63 °FFog.3 mph94%29.80 "Hg1 mi
1:20 AM63 °FFog.3 mph94%29.80 "Hg1 mi
12:50 AM63 °FFog.3 mph94%29.83 "Hg1 mi
11:50 PM
Tue, Oct 6
61 °FFog.1 mph100%29.80 "Hg1 mi
11:20 PM61 °FFog.2 mph100%29.83 "Hg1 mi
10:50 PM61 °FFog.2 mph100%29.83 "Hg1 mi
10:20 PM61 °FFog.2 mph100%29.83 "Hg1 mi
9:50 PM61 °FFog.2 mph100%29.83 "Hg1 mi
9:20 PM63 °FFog.3 mph94%29.83 "Hg1 mi
8:50 PM63 °FFog.3 mph94%29.83 "Hg1 mi
8:20 PM63 °FFog.3 mph94%29.83 "Hg1 mi
7:50 PM63 °FFog.1 mph94%29.83 "Hg1 mi
7:20 PM63 °FFog.No wind94%29.83 "Hg1 mi
6:50 PM63 °FFog.2 mph94%29.83 "Hg1 mi
6:20 PM63 °FFog.2 mph94%29.83 "Hg1 mi
5:50 PM63 °FFog.2 mph94%29.83 "Hg1 mi
5:20 PM63 °FFog.3 mph94%29.83 "Hg2 mi
4:50 PM63 °FFog.2 mph94%29.83 "Hg3 mi
4:20 PM63 °FFog.2 mph94%29.83 "Hg2 mi
3:50 PM63 °FFog.2 mph94%29.83 "Hg2 mi
3:20 PM63 °FFog.2 mph94%29.83 "Hg2 mi
2:50 PM63 °FFog.2 mph94%29.83 "Hg2 mi
2:20 PM63 °FFog.2 mph94%29.86 "Hg2 mi
1:50 PM63 °FFog.3 mph94%29.86 "Hg2 mi
1:20 PM63 °FFog.2 mph94%29.86 "Hg2 mi
12:50 PM63 °FFog.3 mph94%29.86 "Hg1 mi
12:20 PM61 °FFog.2 mph100%29.86 "Hg1 mi
11:50 AM61 °FDrizzle. Fog.3 mph100%29.89 "Hg1 mi
11:20 AM61 °FFog.3 mph100%29.89 "Hg2 mi
Weather by CustomWeather, © 2015

See weather overviewHow to use our weather pages